Temp
-5 -5 -5 -8 -8 -8 -7 -6 -7 -7 -7 -7 -7 -5 -4 -4 -5 -5 -4 -4 -5 -6 -6 -6 -6 -5 -4 -4 -4 -5 -5 -5 -5 -5 -5 -5 -5 -5 -5 -5 -5 -6 -6 -6
-5 -5 -5 -7 -8 -8 -7 -7 -7 -8 -7 -8 -6 -6 -6 -7 -8 -7 -7 -5 -5 -5 -6 -6 -6 -5 -4 -4 -4 -4 -5 -5 -5 -5 -6 -5 -5 -5 -5 -5 -5 -5 -6 -5
-5 -5 -6 -7 -7 -8 -8 -7 -6 -7 -7 -7 -8 -7 -6 -7 -7 -7 -7 -5 -4 -5 -5 -5 -5 -5 -4 -4 -4 -4 -4 -5 -5 -5 -5 -6 -6 -6 -6 -5 -5 -5 -5 -6
-6 -6 -6 -7 -7 -8 -8 -7 -7 -8 -7 -7 -8 -8 -7 -7 -6 -6 -5 -5 -5 -5 -5 -5 -5 -4 -4 -4 -4 -4 -4 -4 -5 -4 -5 -5 -5 -5 -6 -5 -5 -5 -5 -5
-5 -6 -6 -6 -7 -8 -8 -8 -8 -7 -8 -7 -7 -8 -6 -7 -7 -5 -5 -5 -4 -5 -5 -5 -5 -4 -4 -4 -4 -4 -4 -4 -4 -4 -4 -4 -5 -5 -6 -5 -5 -5 -5 -5
-6 -7 -6 -7 -7 -8 -8 -8 -9 -9 -9 -6 -6 -7 -7 -7 -7 -6 -6 -5 -5 -5 -6 -5 -5 -4 -4 -4 -4 -4 -3 -3 -4 -4 -4 -4 -5 -5 -5 -5 -5 -5 -5 -5
-6 -7 -7 -7 -7 -8 -8 -9 -9 -9 -9 -6 -8 -6 -6 -6 -7 -7 -6 -5 -5 -5 -5 -5 -5 -5 -4 -4 -4 -4 -4 -3 -4 -4 -4 -4 -4 -4 -4 -4 -5 -5 -5 -5
-7 -7 -7 -7 -7 -7 -8 -9 -8 -9 -8 -7 -8 -8 -5 -7 -7 -7 -6 -7 -5 -5 -5 -5 -6 -6 -5 -5 -4 -4 -4 -4 -3 -4 -4 -4 -4 -4 -4 -4 -4 -5 -5 -5
-8 -7 -8 -9 -8 -8 -8 -8 -8 -9 -10 -9 -8 -8 -7 -7 -7 -7 -7 -8 -5 -6 -5 -6 -5 -6 -6 -5 -4 -4 -4 -4 -4 -3 -4 -4 -4 -4 -4 -4 -4 -5 -5 -5
-9 -9 -8 -8 -10 -9 -9 -8 -9 -9 -9 -9 -8 -8 -8 -7 -7 -8 -7 -6 -6 -6 -6 -6 -5 -6 -7 -6 -5 -4 -5 -4 -4 -3 -4 -4 -4 -4 -4 -4 -4 -5 -5 -5
-11 -9 -9 -9 -10 -8 -9 -9 -9 -10 -10 -9 -7 -7 -8 -7 -7 -7 -8 -7 -7 -5 -6 -6 -7 -6 -6 -6 -5 -5 -4 -5 -4 -4 -4 -4 -4 -4 -3 -4 -4 -4 -5 -5
-12 -11 -10 -9 -9 -10 -10 -10 -10 -10 -10 -10 -8 -8 -9 -9 -8 -8 -7 -7 -6 -7 -5 -5 -6 -7 -6 -6 -5 -6 -6 -5 -5 -4 -4 -4 -4 -3 -4 -4 -4 -4 -4 -5
-14 -12 -11 -10 -10 -11 -10 -10 -10 -10 -10 -10 -9 -8 -8 -9 -9 -8 -6 -6 -7 -7 -6 -5 -6 -6 -6 -6 -5 -6 -6 -5 -5 -5 -5 -5 -4 -4 -4 -4 -4 -4 -4 -4
-14 -14 -12 -11 -10 -11 -11 -10 -10 -10 -10 -9 -9 -8 -9 -9 -8 -7 -8 -9 -7 -8 -7 -6 -6 -6 -6 -6 -6 -6 -6 -6 -5 -5 -5 -5 -5 -4 -5 -4 -4 -4 -4 -4
-15 -14 -14 -13 -12 -12 -12 -11 -11 -10 -11 -11 -10 -9 -10 -9 -9 -9 -8 -7 -8 -7 -7 -8 -7 -7 -7 -7 -6 -7 -6 -6 -5 -5 -5 -6 -5 -5 -5 -5 -4 -4 -4 -5
-15 -14 -14 -14 -12 -12 -12 -11 -11 -11 -11 -11 -11 -10 -10 -9 -8 -9 -8 -7 -7 -7 -8 -7 -7 -7 -7 -7 -7 -7 -7 -7 -6 -6 -6 -6 -5 -6 -5 -5 -5 -4 -5 -5
-14 -15 -14 -14 -13 -12 -12 -11 -11 -11 -11 -11 -11 -10 -9 -10 -8 -8 -8 -8 -8 -7 -7 -8 -7 -7 -7 -7 -6 -6 -6 -7 -7 -6 -6 -6 -6 -6 -6 -6 -5 -5 -4 -5
-15 -15 -15 -14 -14 -13 -12 -12 -12 -11 -11 -11 -11 -11 -10 -9 -9 -8 -9 -9 -8 -8 -8 -9 -8 -8 -7 -7 -6 -7 -7 -7 -8 -7 -6 -6 -6 -7 -7 -6 -6 -5 -5 -5
-16 -15 -15 -14 -14 -14 -13 -12 -12 -11 -11 -11 -11 -11 -10 -10 -10 -10 -9 -9 -10 -9 -9 -9 -9 -9 -9 -9 -8 -7 -8 -8 -8 -8 -7 -7 -7 -6 -6 -6 -6 -6 -5 -5
-16 -16 -15 -14 -14 -14 -14 -14 -13 -13 -12 -11 -11 -11 -11 -11 -10 -9 -10 -10 -10 -10 -10 -9 -9 -9 -9 -9 -9 -9 -8 -8 -8 -8 -8 -7 -8 -7 -7 -7 -7 -6 -6 -6
-17 -17 -16 -16 -15 -15 -15 -15 -14 -13 -13 -12 -12 -11 -11 -11 -10 -10 -9 -10 -10 -10 -10 -10 -10 -10 -10 -9 -9 -9 -8 -9 -8 -8 -8 -8 -8 -8 -8 -7 -7 -7 -6 -6
-17 -16 -17 -16 -16 -16 -15 -15 -15 -14 -13 -13 -13 -12 -12 -12 -11 -11 -11 -10 -11 -11 -10 -9 -10 -10 -10 -9 -9 -9 -9 -9 -9 -8 -9 -8 -8 -8 -8 -8 -7 -7 -7 -6
-17 -17 -17 -17 -16 -16 -15 -15 -14 -13 -12 -13 -12 -12 -13 -13 -12 -11 -11 -11 -11 -11 -12 -11 -11 -11 -10 -10 -9 -9 -9 -8 -8 -8 -8 -8 -8 -8 -8 -8 -8 -8 -7 -7
-17 -17 -17 -16 -17 -16 -16 -15 -15 -14 -13 -13 -13 -13 -12 -13 -13 -13 -13 -13 -13 -12 -12 -12 -12 -11 -11 -9 -10 -10 -9 -9 -8 -8 -8 -8 -8 -8 -8 -8 -8 -8 -8 -8
-17 -17 -17 -17 -17 -16 -16 -15 -15 -15 -14 -14 -14 -13 -13 -13 -13 -14 -14 -13 -13 -12 -12 -11 -11 -11 -10 -10 -10 -10 -9 -9 -9 -8 -8 -8 -8 -8 -8 -8 -8 -8 -8 -8
-17 -17 -18 -18 -17 -17 -16 -16 -15 -16 -16 -16 -15 -15 -14 -14 -14 -14 -14 -13 -13 -12 -12 -12 -12 -12 -10 -9 -9 -8 -9 -9 -9 -9 -8 -8 -8 -8 -8 -8 -8 -8 -8 -8
Height
5870 5872 5878 5886 5890 5888 5893 5893 5893 5898 5901 5902 5900 5895 5896 5901 5905 5907 5909 5910 5908 5915 5918 5920 5921 5923 5925 5926 5929 5931 5933 5934 5935 5938 5939 5940 5943 5944 5946 5947 5948 5949 5948 5950
5863 5865 5877 5881 5883 5885 5888 5888 5891 5895 5900 5901 5902 5899 5896 5897 5901 5906 5908 5911 5910 5910 5914 5918 5920 5921 5924 5927 5928 5932 5933 5934 5936 5938 5940 5940 5942 5944 5945 5947 5948 5948 5948 5948
5856 5867 5871 5875 5877 5880 5885 5885 5891 5894 5898 5899 5901 5901 5901 5904 5905 5907 5908 5910 5911 5911 5910 5915 5918 5920 5923 5927 5928 5932 5934 5934 5937 5938 5940 5941 5943 5944 5946 5948 5949 5950 5951 5951
5849 5859 5861 5866 5871 5876 5881 5887 5886 5889 5894 5896 5896 5900 5901 5901 5904 5907 5910 5910 5912 5911 5909 5912 5915 5919 5921 5925 5927 5930 5934 5935 5936 5939 5940 5942 5944 5946 5948 5949 5950 5951 5951 5952
5844 5851 5855 5859 5865 5870 5882 5884 5883 5885 5888 5890 5893 5897 5899 5901 5902 5906 5910 5912 5911 5911 5908 5909 5914 5917 5921 5924 5927 5930 5934 5936 5936 5938 5940 5942 5944 5946 5948 5950 5952 5953 5954 5955
5834 5841 5845 5853 5859 5864 5877 5875 5877 5879 5882 5882 5890 5891 5896 5898 5901 5907 5909 5909 5909 5909 5906 5907 5913 5917 5920 5922 5925 5928 5931 5936 5936 5938 5939 5941 5944 5945 5948 5950 5952 5955 5956 5957
5823 5832 5837 5844 5850 5856 5866 5869 5870 5873 5874 5883 5884 5887 5891 5894 5897 5904 5907 5908 5906 5906 5905 5908 5912 5917 5918 5921 5923 5927 5929 5932 5936 5938 5939 5941 5943 5945 5947 5950 5952 5954 5957 5958
5814 5822 5827 5835 5841 5850 5858 5862 5865 5867 5870 5879 5880 5881 5890 5891 5893 5898 5901 5905 5907 5905 5903 5906 5911 5916 5918 5920 5921 5924 5928 5931 5934 5937 5938 5940 5942 5944 5946 5948 5951 5953 5955 5958
5804 5813 5819 5827 5837 5843 5850 5853 5864 5863 5866 5871 5876 5880 5883 5886 5888 5892 5894 5902 5903 5905 5906 5907 5910 5916 5919 5919 5921 5922 5925 5928 5930 5935 5939 5939 5940 5942 5945 5947 5949 5952 5954 5957
5797 5801 5809 5821 5822 5831 5839 5851 5852 5855 5860 5864 5872 5874 5876 5882 5885 5886 5886 5893 5898 5905 5905 5905 5910 5914 5917 5918 5919 5921 5923 5926 5928 5931 5936 5938 5938 5940 5942 5946 5948 5950 5953 5954
5784 5791 5803 5805 5811 5825 5832 5838 5843 5849 5852 5858 5866 5870 5873 5879 5879 5880 5882 5883 5887 5890 5899 5904 5908 5910 5914 5915 5917 5919 5922 5922 5924 5928 5931 5935 5936 5938 5940 5943 5946 5947 5950 5952
5773 5781 5787 5797 5809 5816 5822 5829 5835 5838 5846 5850 5858 5867 5870 5873 5871 5870 5876 5878 5881 5886 5893 5900 5903 5908 5912 5913 5914 5915 5919 5920 5921 5923 5926 5930 5933 5934 5937 5939 5942 5944 5946 5948
5764 5769 5777 5788 5797 5802 5811 5821 5827 5832 5838 5841 5850 5861 5863 5867 5864 5862 5869 5873 5873 5863 5875 5891 5899 5901 5905 5908 5910 5914 5915 5917 5918 5920 5922 5924 5928 5931 5933 5934 5936 5940 5942 5944
5758 5763 5768 5779 5793 5798 5804 5811 5818 5823 5826 5835 5841 5854 5854 5859 5862 5863 5867 5865 5869 5872 5876 5886 5892 5893 5898 5903 5905 5909 5910 5913 5914 5917 5918 5920 5922 5925 5928 5929 5931 5933 5937 5939
5752 5758 5763 5770 5781 5786 5793 5801 5807 5813 5818 5823 5835 5843 5846 5848 5851 5855 5861 5864 5867 5871 5874 5879 5882 5888 5892 5897 5900 5904 5905 5904 5907 5910 5915 5917 5917 5918 5922 5924 5926 5928 5930 5933
5745 5752 5757 5764 5774 5778 5786 5791 5798 5802 5808 5816 5825 5829 5837 5838 5846 5848 5856 5861 5866 5869 5872 5875 5878 5883 5886 5889 5895 5897 5899 5903 5905 5906 5909 5911 5912 5913 5917 5919 5921 5922 5925 5927
5741 5745 5749 5757 5764 5771 5778 5786 5790 5794 5801 5810 5814 5820 5825 5831 5837 5841 5848 5854 5858 5860 5865 5868 5871 5877 5880 5884 5889 5892 5895 5899 5901 5903 5903 5903 5906 5907 5910 5913 5915 5917 5918 5920
5732 5738 5745 5750 5758 5763 5770 5777 5782 5789 5797 5804 5808 5812 5816 5824 5829 5835 5838 5847 5853 5854 5855 5861 5865 5868 5872 5878 5881 5884 5888 5891 5894 5896 5897 5896 5898 5901 5904 5905 5908 5911 5912 5914
5723 5728 5736 5744 5754 5756 5762 5768 5775 5781 5787 5795 5798 5802 5809 5813 5821 5827 5830 5837 5844 5847 5851 5855 5859 5863 5865 5869 5872 5876 5880 5884 5887 5890 5892 5892 5892 5895 5898 5899 5901 5904 5906 5908
5718 5724 5732 5737 5745 5749 5753 5757 5763 5770 5778 5782 5789 5795 5801 5804 5810 5818 5825 5828 5835 5837 5842 5847 5853 5856 5859 5863 5865 5868 5871 5875 5878 5881 5884 5886 5888 5888 5890 5892 5893 5895 5897 5901
5713 5720 5725 5729 5735 5740 5745 5748 5754 5760 5770 5771 5779 5787 5789 5796 5801 5807 5813 5816 5823 5828 5833 5838 5842 5847 5852 5855 5858 5859 5864 5866 5868 5872 5877 5879 5881 5883 5883 5884 5885 5888 5890 5893
5708 5714 5718 5723 5729 5733 5738 5742 5747 5756 5759 5760 5769 5779 5783 5787 5791 5795 5802 5807 5813 5817 5822 5827 5831 5837 5842 5846 5849 5851 5854 5859 5863 5864 5868 5872 5874 5876 5877 5877 5879 5880 5882 5885
5703 5710 5714 5719 5723 5726 5731 5736 5740 5748 5749 5757 5762 5768 5774 5777 5781 5785 5791 5795 5800 5805 5811 5815 5820 5824 5832 5836 5839 5843 5846 5850 5854 5857 5860 5865 5867 5867 5868 5870 5871 5873 5875 5877
5699 5704 5706 5714 5714 5718 5724 5728 5734 5740 5742 5742 5751 5755 5763 5767 5771 5777 5781 5786 5791 5795 5799 5803 5808 5812 5818 5825 5830 5832 5837 5840 5844 5848 5850 5853 5857 5858 5859 5862 5865 5866 5868 5870
5693 5697 5701 5705 5708 5714 5720 5724 5727 5729 5732 5733 5739 5746 5750 5755 5761 5767 5773 5777 5779 5782 5786 5790 5793 5798 5803 5808 5814 5820 5824 5828 5831 5835 5839 5842 5845 5848 5849 5853 5856 5858 5860 5862
5688 5691 5695 5697 5701 5706 5713 5719 5722 5724 5727 5728 5730 5734 5739 5744 5750 5755 5759 5765 5770 5773 5776 5780 5782 5784 5791 5795 5795 5804 5809 5815 5818 5821 5825 5828 5833 5836 5840 5841 5844 5847 5850 5851
Wind_Speed
30 32 30 27 21 26 16 18 8 4 6 11 9 13 19 11 22 13 19 20 22 19 15 12 11 10 9 9 9 9 12 13 12 8 10 11 12 10 10 10 9 8 12 13
34 33 25 33 32 27 22 19 12 6 5 9 13 11 16 19 7 5 17 18 19 20 16 14 12 12 12 9 9 9 10 12 12 10 7 7 8 7 8 7 8 10 13 16
36 25 27 38 38 35 27 21 14 7 8 7 7 11 11 11 11 7 8 11 15 15 16 15 14 13 15 13 9 10 10 12 12 12 10 7 7 6 5 6 8 11 14 16
38 31 33 38 41 39 33 19 18 9 7 9 7 6 12 18 11 12 8 10 8 13 13 13 13 11 15 16 14 11 9 10 12 13 12 12 10 9 6 5 8 9 10 14
39 35 35 36 43 40 33 21 20 17 13 17 11 10 9 16 18 14 13 8 9 11 15 14 11 11 11 16 15 12 10 9 10 10 11 10 10 9 8 7 8 8 10 11
43 39 40 37 37 44 37 31 28 22 17 19 15 11 9 10 12 18 16 11 11 12 15 15 9 8 11 12 16 15 13 10 9 9 9 10 11 12 11 10 9 7 10 11
46 45 44 40 40 44 44 39 31 25 23 14 11 19 7 3 5 3 16 22 18 14 16 16 12 8 8 11 14 16 15 14 12 11 11 10 11 12 13 13 12 11 9 10
48 47 49 45 43 41 48 45 40 30 23 13 21 19 11 6 11 11 11 18 14 16 16 15 14 10 8 9 11 16 17 15 14 13 14 13 13 13 14 14 13 14 11 8
50 48 48 45 40 41 45 54 46 37 28 23 17 22 23 21 16 18 19 14 11 21 16 14 12 10 9 6 8 10 15 18 16 16 15 15 16 15 15 15 15 13 13 11
48 49 48 46 47 42 45 49 49 45 38 33 24 26 25 23 22 20 25 18 10 13 10 13 9 9 11 7 6 7 8 14 18 19 18 18 18 20 18 17 16 16 14 12
45 49 45 46 50 47 42 51 51 45 37 41 31 31 25 23 25 25 26 24 19 30 26 28 9 9 13 11 9 9 10 7 14 21 23 20 21 21 21 20 19 19 17 16
40 46 48 48 45 46 48 52 51 48 42 40 39 35 25 21 28 30 34 35 29 28 24 23 15 18 13 13 11 12 12 12 10 17 25 25 23 23 23 22 22 21 20 18
33 43 47 47 45 49 51 51 56 50 47 46 43 42 37 32 36 28 36 37 37 30 27 11 15 19 23 19 16 16 16 15 13 13 21 28 25 23 24 25 25 24 23 21
36 39 43 47 43 47 48 53 57 54 50 49 48 45 38 36 35 32 26 26 24 27 26 24 18 18 20 20 21 22 19 18 16 15 15 25 28 26 26 27 28 27 26 26
40 38 41 42 43 51 50 49 61 60 53 46 43 46 34 38 33 32 35 39 24 32 39 29 23 23 24 20 22 23 24 21 18 18 15 18 27 30 30 29 28 29 30 28
47 41 39 38 41 53 53 52 47 51 59 47 39 49 47 47 43 38 29 35 32 25 36 36 32 30 29 28 25 26 24 23 22 21 21 22 23 29 32 32 30 30 30 31
46 45 41 41 37 53 55 52 46 46 50 49 43 48 52 55 50 50 37 31 25 20 31 29 30 34 29 27 25 25 26 25 20 24 28 25 27 29 32 34 34 32 31 32
50 51 48 45 42 46 50 50 40 43 50 51 45 50 46 52 59 52 37 34 28 28 34 29 36 34 32 28 27 26 26 24 21 22 26 25 27 28 34 36 36 34 34 32
40 44 52 46 47 44 47 50 45 46 46 55 52 51 50 52 47 45 46 32 35 32 30 37 36 28 29 31 29 28 27 26 28 27 24 25 26 27 31 35 35 35 36 34
32 27 34 43 44 48 45 43 38 39 39 50 56 52 51 52 55 57 56 51 44 38 34 37 39 32 27 32 34 32 30 27 29 27 24 25 26 29 27 30 34 36 38 37
36 36 29 31 37 47 46 42 47 40 41 44 47 50 52 54 52 52 48 54 48 43 37 46 51 38 32 33 35 33 31 33 31 28 27 24 25 27 28 30 31 34 36 38
36 35 36 40 37 40 43 47 48 48 38 39 48 51 49 48 49 47 46 46 46 44 46 50 47 42 38 38 38 37 35 34 32 29 30 31 28 29 30 28 30 31 34 36
36 37 28 31 39 41 45 45 50 49 24 52 48 54 52 53 54 43 49 42 47 39 43 46 49 48 43 37 32 34 34 36 34 35 36 39 33 30 32 33 31 31 32 31
38 38 40 34 37 48 44 49 50 60 44 23 53 49 54 47 39 39 41 42 44 46 50 51 52 53 49 52 47 43 39 39 41 40 41 45 42 34 35 34 34 34 32 29
39 38 38 41 43 44 50 48 52 50 50 40 27 40 59 55 53 48 48 51 55 57 57 61 64 65 64 60 58 54 52 47 46 48 45 47 49 42 39 37 37 35 34 33
20 34 36 38 38 43 45 49 49 47 45 48 41 29 34 47 51 49 50 53 58 61 62 64 68 67 73 73 73 63 60 56 51 51 53 51 52 51 48 44 42 42 41 39
Wind_Direction
222 227 218 198 186 201 203 207 156 95 50 18 353 341 309 249 217 249 207 192 171 181 183 191 163 171 166 157 159 164 177 180 168 171 167 164 147 138 121 99 94 91 96 101
223 221 210 202 197 198 196 203 183 153 78 64 98 64 48 35 146 193 174 199 186 181 180 183 182 176 176 182 172 169 175 182 175 166 166 169 148 142 109 87 71 79 97 97
227 221 215 206 206 204 207 214 197 176 136 111 157 157 120 82 167 122 172 190 187 180 168 182 185 178 179 188 191 185 177 180 189 175 165 175 167 148 125 91 83 96 112 105
228 217 215 207 210 207 205 206 199 223 219 198 168 183 140 117 138 127 140 176 174 159 144 164 168 185 184 195 190 196 195 181 182 189 179 189 179 173 151 111 107 104 108 111
226 219 218 214 210 210 195 213 212 216 241 213 176 169 144 127 139 164 154 182 163 140 128 122 151 175 188 195 198 197 196 207 176 184 192 190 179 177 161 140 133 131 129 127
225 218 219 217 214 214 191 202 200 224 223 212 190 192 181 126 157 177 179 181 168 140 117 116 132 170 184 190 202 197 199 207 203 178 176 183 177 171 167 154 145 150 144 150
220 218 220 219 212 212 198 202 194 217 224 173 213 215 214 182 36 272 200 207 181 157 139 132 128 140 164 186 192 208 207 202 209 201 186 181 185 183 173 169 165 163 167 170
225 217 218 218 216 214 206 198 201 208 229 191 198 209 184 251 267 276 269 195 188 180 168 155 143 156 159 167 189 199 208 217 212 217 201 189 189 199 190 186 182 175 177 190
222 220 219 221 224 215 207 206 204 212 220 223 209 207 217 234 238 248 262 197 237 209 187 170 152 154 179 179 169 195 214 213 215 224 222 200 195 203 207 201 194 192 191 196
223 222 219 217 218 215 209 204 202 211 218 218 201 199 219 211 227 246 257 256 177 182 159 175 165 168 178 198 213 176 190 220 224 225 223 218 208 204 208 213 209 205 208 209
223 224 217 216 219 214 210 206 206 208 214 219 202 198 216 214 221 225 245 252 228 183 171 187 187 211 205 200 225 224 212 200 219 228 229 219 220 216 209 211 220 221 216 217
220 220 220 218 215 217 212 207 205 208 208 213 207 201 217 236 219 232 236 236 236 189 199 185 193 209 218 216 224 245 242 238 224 234 233 228 222 223 219 212 215 224 225 223
224 217 220 215 208 211 212 212 208 206 210 213 212 204 212 221 245 249 239 238 238 217 188 192 198 186 193 202 220 232 244 248 240 239 238 233 226 228 227 222 216 217 226 223
219 221 220 217 211 203 212 211 210 207 215 213 216 210 225 227 239 247 248 267 215 219 223 218 210 200 203 212 221 226 232 244 246 250 256 237 228 224 229 229 226 220 221 230
216 217 220 216 201 200 206 206 209 210 214 219 212 208 215 224 217 232 244 247 256 235 223 224 229 229 224 224 224 229 234 238 246 250 255 256 236 230 226 229 231 229 225 224
217 215 222 225 202 200 204 206 205 213 217 215 217 220 212 228 224 231 237 236 251 273 233 239 222 244 239 230 232 236 237 237 253 257 257 251 246 242 238 230 230 233 233 229
221 217 216 214 213 203 207 208 212 214 214 213 215 226 218 221 222 231 230 242 223 234 241 227 234 233 234 237 226 229 231 226 247 254 264 259 244 239 241 240 235 232 233 234
226 223 218 216 210 217 210 209 215 217 215 210 215 222 228 223 228 234 238 226 236 225 218 242 234 241 245 235 226 221 224 224 239 251 253 252 243 239 239 239 239 237 236 235
212 222 224 223 212 217 215 210 213 215 212 209 214 222 224 232 228 227 232 227 223 233 236 245 227 229 227 225 225 230 229 234 241 239 245 246 241 242 242 242 244 241 241 240
218 219 223 222 215 219 224 218 208 204 207 211 213 214 225 233 236 231 230 227 233 241 237 238 237 222 227 231 230 238 244 244 238 227 239 244 247 252 249 243 241 243 241 241
211 216 219 214 220 217 219 225 219 206 204 206 213 215 221 225 231 233 233 231 238 237 232 225 227 219 231 240 238 237 239 246 263 225 232 239 247 245 243 247 241 242 246 245
220 224 217 220 227 223 217 217 222 217 213 207 208 213 223 223 224 223 224 223 220 215 221 228 233 232 236 237 242 244 247 243 240 228 247 240 246 242 240 236 240 240 243 247
213 210 213 220 218 223 220 217 219 221 200 212 210 212 214 220 223 222 223 222 219 225 230 233 240 247 233 238 230 235 244 252 251 236 238 243 241 237 240 232 232 237 240 241
217 221 228 226 227 221 223 226 223 221 217 217 213 211 214 212 217 227 230 236 239 242 244 245 245 248 246 237 238 245 256 261 258 251 241 232 234 233 236 242 243 243 244 243
228 230 234 233 234 228 223 227 230 236 232 245 234 216 223 220 221 227 232 234 240 245 248 250 254 254 255 255 254 251 250 255 256 251 244 238 233 234 232 237 240 238 234 238
232 223 229 228 230 229 226 227 235 248 252 256 259 260 250 231 228 234 237 240 243 247 250 252 253 256 254 255 259 257 253 251 251 253 247 241 238 235 236 232 230 232 237 242